Regional Weather Roundup
Issued by NWS

Home | Current Version | Previous Version | Text Only | Print | Product List | Glossary On
Versions: 1 2 3 4 5 6 7 8 9 10 11 12 13 14 15 16 17 18 19 20 21 22 23 24 25 26 27 28 29 30 31 32 33 34 35 36 37 38 39 40 41 42 43 44 45 46 47 48 49 50
000
ASUS43 KLSX 060110
RWRMO

WEATHER SUMMARY FOR MISSOURI
NATIONAL WEATHER SERVICE SPRINGFIELD MO
800 PM CDT THU MAY 05 2016

NOTE: "FAIR" INDICATES FEW OR NO CLOUDS BELOW 12,000 FEET WITH NO
       SIGNIFICANT WEATHER AND/OR OBSTRUCTIONS TO VISIBILITY.
       CURRENT SKY AND/OR WEATHER CONDITIONS ARE NOT AVAILABLE FOR
       CHILLICOTHE AND FARMINGTON.

MOZ001>031-035>038-043-044-053-054-060200-
...NORTHERN AND WESTERN MISSOURI...

CITY           SKY/WX    TMP DP  RH WIND       PRES   REMARKS
KANSAS CTY INT PTCLDY    66  40  38 NE6       30.02F
KANSAS C DTWN  CLEAR     69  36  29 NE5       30.01S
LEE`S SUMMIT   CLEAR     67  37  33 NE6       30.03S
ST JOSEPH      CLEAR     68  39  34 E5        30.02S
CHILLICOTHE      N/A     64  47  53 CALM      30.03S
KIRKSVILLE     CLEAR     59  37  44 CALM      30.03S

$$
MOZ066>068-077>081-088>096-101>105-060200-
...SOUTHWEST MISSOURI...

CITY           SKY/WX    TMP DP  RH WIND       PRES   REMARKS
SPRINGFIELD    CLEAR     62  35  36 N6        30.01S
JOPLIN         CLEAR     65  44  46 N7        30.02S
BRANSON        PTCLDY    64  34  32 NW7       30.02R

$$
MOZ032>034-039>042-045>050-055>058-069>072-060200-
...CENTRAL MISSOURI...

CITY           SKY/WX    TMP DP  RH WIND       PRES   REMARKS
COLUMBIA       CLEAR     64  40  41 NE5       30.02S
JEFFERSON CITY CLEAR     66  37  34 E3        30.01S
ROLLA          CLEAR     59  39  47 N5        30.00S
SEDALIA        CLEAR     65  35  33 NE3       30.03S
WHITEMAN AFB   CLEAR     65  37  36 N5        30.01S
WARRENSBURG    CLEAR     66  34  30 CALM      30.02S
OSAGE BEACH    CLEAR     61  30  31 N3        30.02S

$$
MOZ051-052-059>065-060200-
...EAST CENTRAL MISSOURI...

CITY           SKY/WX    TMP DP  RH WIND       PRES   REMARKS
ST LOUIS INTL  PTCLDY    63  42  46 N5        30.01R
SPIRIT OF STL  PTCLDY    64  41  42 N3        30.00R
ST CHARLES     CLEAR     62  43  49 N5        30.00R

$$
MOZ072>076-082>087-097>100-106>115-060200-
...SOUTH CENTRAL AND SOUTHEAST MISSOURI...

CITY           SKY/WX    TMP DP  RH WIND       PRES   REMARKS
CAPE GIRARDEAU CLEAR     57  45  64 N3        30.00S
FARMINGTON     CLEAR     56  44  64 E5        30.02R
POPLAR BLUFF   CLEAR     60  45  57 NE8       30.00R
WEST PLAINS    CLEAR     61  32  33 N5        30.01R

$$




USA.gov is the U.S. government's official web portal to all federal, state and local government web resources and services.